Date String (YYYY-MM-DD hh:mm:ss) UTC,Instrument flags,Ambient pressure (hPa),Sample flow (lpm),Bypass flow (lpm),Sample temperature (°C),Ambient temperature (°C),ASC tube jacket temperature (°C),LED temperature (°C),Box temperature (°C),Sample RH (%),Span deviation,Mass concentration (μg/m³),Mass concentration (μg/m³),Mass concentration (μg/m³)
DateTimeUTC,F1_M11,P_M11,Q1_M11,Q2_M11,T1_M11,T2_M11,T3_M11,T4_M11,T5_M11,U1_M11,ZSPAN_M11,X0_M11,X2_M11,X1_M11
2022-01-25 16:00:00,,0828.6,5.00,0.00,22.2,21.6,00.0,31.2,23.9,14.9,0000.0,0002.40,0001.22,0000.96
2022-01-25 16:01:00,,0828.7,4.99,0.00,22.2,21.6,00.0,31.2,23.9,14.9,0000.0,0002.53,0001.21,0000.86
2022-01-25 16:02:00,,0828.7,5.00,0.00,22.2,21.6,00.0,31.2,23.9,14.9,0000.0,0002.74,0001.21,0000.78
2022-01-25 16:03:00,,0828.7,5.00,0.00,22.2,21.5,00.0,31.2,23.9,14.9,0000.0,0003.32,0001.17,0000.76
2022-01-25 16:04:00,,0828.7,5.00,0.00,22.2,21.5,00.0,31.2,23.9,14.9,0000.0,0003.39,0001.20,0000.75
2022-01-25 16:05:00,,0828.9,5.00,0.00,22.1,21.5,00.0,31.2,23.8,14.9,0000.0,0003.50,0001.23,0000.75
2022-01-25 16:06:00,,0829.1,5.01,0.00,22.1,21.4,00.0,31.2,23.8,14.9,0000.0,0003.53,0001.24,0000.75
2022-01-25 16:07:00,,0829.2,4.99,0.00,22.1,21.5,00.0,31.2,23.8,14.9,0000.0,0003.50,0001.24,0000.76
2022-01-25 16:08:00,,0828.9,5.00,0.00,22.2,21.9,00.0,31.2,23.9,14.8,0000.0,0003.44,0001.24,0000.77
2022-01-25 16:09:00,,0828.9,5.00,0.00,22.3,22.7,00.0,31.2,24.2,14.7,0000.0,0003.21,0001.21,0000.78
2022-01-25 16:10:00,,0828.9,5.00,0.00,22.4,23.3,00.0,31.3,24.4,14.6,0000.0,0003.16,0001.18,0000.80
2022-01-25 16:11:00,,0829.0,5.00,0.00,22.5,23.1,00.0,31.3,24.5,14.5,0000.0,0003.45,0001.19,0000.81
2022-01-25 16:12:00,,0828.9,4.99,0.00,22.5,22.8,00.0,31.3,24.4,14.4,0000.0,0003.20,0001.09,0000.81
2022-01-25 16:13:00,,0829.0,5.00,0.00,22.5,22.6,00.0,31.3,24.3,14.3,0000.0,0002.88,0000.99,0000.79
2022-01-25 16:14:00,,0829.0,5.00,0.00,22.5,22.4,00.0,31.3,24.3,14.2,0000.0,0001.87,0000.98,0000.78
2022-01-25 16:15:00,,0829.0,5.00,0.00,22.4,22.2,00.0,31.3,24.2,14.3,0000.0,0001.81,0000.95,0000.77
2022-01-25 16:16:00,,0829.1,5.00,0.00,22.4,22.0,00.0,31.3,24.1,14.3,0000.0,0001.68,0000.90,0000.76
2022-01-25 16:17:00,,0829.1,5.00,0.00,22.4,21.9,00.0,31.3,24.1,14.3,0000.0,0001.63,0000.88,0000.74
2022-01-25 16:18:00,,0829.0,5.00,0.00,22.4,21.8,00.0,31.3,24.1,14.3,0000.0,0001.58,0000.85,0000.72
2022-01-25 16:19:00,,0829.1,5.00,0.00,22.3,21.8,00.0,31.3,24.0,14.3,0000.0,0001.54,0000.82,0000.70
2022-01-25 16:20:00,,0829.1,5.00,0.00,22.3,21.7,00.0,31.3,24.0,14.3,0000.0,0001.51,0000.79,0000.67
2022-01-25 16:21:00,,0829.3,5.00,0.00,22.3,21.7,00.0,31.3,24.0,14.2,0000.0,0001.39,0000.75,0000.64
2022-01-25 16:22:00,,0829.2,5.01,0.00,22.3,21.6,00.0,31.3,24.0,14.3,0000.0,0001.03,0000.69,0000.61
2022-01-25 16:23:00,,0829.2,5.00,0.00,22.2,21.6,00.0,31.3,23.9,14.3,0000.0,0001.00,0000.67,0000.59
2022-01-25 16:24:00,,0829.2,4.99,0.00,22.2,21.6,00.0,31.2,23.9,14.4,0000.0,0002.06,0000.69,0000.59
2022-01-25 16:25:00,,0829.2,5.00,0.00,22.2,21.5,00.0,31.2,23.9,14.4,0000.0,0002.66,0000.67,0000.59
2022-01-25 16:26:00,,0829.2,5.01,0.00,22.2,21.5,00.0,31.2,23.9,14.4,0000.0,0002.57,0000.65,0000.58
2022-01-25 16:27:00,,0829.3,5.00,0.00,22.2,21.9,00.0,31.2,23.9,14.4,0000.0,0002.53,0000.63,0000.57
2022-01-25 16:28:00,,0829.2,5.01,0.00,22.3,22.7,00.0,31.3,24.2,14.2,0000.0,0002.51,0000.62,0000.56
2022-01-25 16:29:00,,0829.2,5.00,0.00,22.5,23.4,00.0,31.3,24.5,14.0,0000.0,0002.48,0000.60,0000.54
2022-01-25 16:30:00,,0829.3,5.00,0.00,22.6,23.3,00.0,31.4,24.5,13.9,0000.0,0002.46,0000.59,0000.54
2022-01-25 16:31:00,,0829.3,4.99,0.00,22.6,23.0,00.0,31.4,24.5,13.9,0000.0,0002.47,0000.59,0000.54
2022-01-25 16:32:00,,0829.3,5.01,0.00,22.6,22.8,00.0,31.4,24.4,13.9,0000.0,0002.61,0000.61,0000.55
2022-01-25 16:33:00,,0829.3,5.00,0.00,22.6,22.5,00.0,31.4,24.4,13.9,0000.0,0002.68,0000.63,0000.55
2022-01-25 16:34:00,,0829.4,4.99,0.00,22.5,22.3,00.0,31.4,24.3,13.8,0000.0,0002.69,0000.64,0000.56
2022-01-25 16:35:00,,0829.3,4.99,0.00,22.5,22.1,00.0,31.4,24.3,13.9,0000.0,0001.76,0000.62,0000.56
2022-01-25 16:36:00,,0829.3,5.01,0.00,22.5,22.0,00.0,31.4,24.2,13.8,0000.0,0001.01,0000.63,0000.56
2022-01-25 16:37:00,,0829.4,5.00,0.00,22.4,21.9,00.0,31.4,24.2,13.7,0000.0,0001.04,0000.65,0000.56
2022-01-25 16:38:00,,0829.5,5.00,0.00,22.4,21.8,00.0,31.4,24.1,13.6,0000.0,0001.08,0000.66,0000.56
2022-01-25 16:39:00,,0829.5,4.99,0.00,22.4,21.7,00.0,31.4,24.1,13.6,0000.0,0001.07,0000.66,0000.56
2022-01-25 16:40:00,,0829.5,5.00,0.00,22.3,21.7,00.0,31.4,24.0,13.6,0000.0,0001.06,0000.65,0000.56
2022-01-25 16:41:00,,0829.5,5.02,0.00,22.3,21.6,00.0,31.3,24.0,13.6,0000.0,0001.06,0000.65,0000.56
2022-01-25 16:42:00,,0829.5,4.99,0.00,22.3,21.6,00.0,31.3,24.0,13.6,0000.0,0001.09,0000.66,0000.56
2022-01-25 16:43:00,,0829.5,4.99,0.00,22.3,21.7,00.0,31.3,24.0,13.5,0000.0,0001.09,0000.67,0000.55
2022-01-25 16:44:00,,0829.5,5.01,0.00,22.3,22.3,00.0,31.3,24.2,13.5,0000.0,0000.97,0000.65,0000.54
2022-01-25 16:45:00,,0829.6,5.00,0.00,22.5,23.2,00.0,31.4,24.5,13.4,0000.0,0000.94,0000.63,0000.53
2022-01-25 16:46:00,,0829.6,4.99,0.00,22.6,23.5,00.0,31.4,24.7,13.3,0000.0,0000.92,0000.62,0000.53
2022-01-25 16:47:00,,0829.6,4.99,0.00,22.7,23.2,00.0,31.5,24.7,13.3,0000.0,0000.88,0000.61,0000.53
2022-01-25 16:48:00,,0829.6,5.01,0.00,22.7,23.0,00.0,31.5,24.6,13.3,0000.0,0000.86,0000.60,0000.53
2022-01-25 16:49:00,,0829.6,5.01,0.00,22.7,22.6,00.0,31.5,24.5,13.4,0000.0,0000.88,0000.61,0000.54
2022-01-25 16:50:00,,0829.6,5.00,0.00,22.7,22.4,00.0,31.5,24.4,13.4,0000.0,0000.91,0000.62,0000.54
2022-01-25 16:51:00,,0829.6,5.00,0.00,22.6,22.2,00.0,31.5,24.4,13.4,0000.0,0000.96,0000.64,0000.55
2022-01-25 16:52:00,,0829.6,4.99,0.00,22.6,22.1,00.0,31.5,24.3,13.5,0000.0,0000.95,0000.64,0000.55
2022-01-25 16:53:00,,0829.6,5.00,0.00,22.6,22.0,00.0,31.5,24.3,13.5,0000.0,0000.92,0000.63,0000.56
2022-01-25 16:54:00,,0829.6,5.00,0.00,22.5,22.0,00.0,31.5,24.2,13.6,0000.0,0000.84,0000.61,0000.57
2022-01-25 16:55:00,,0829.8,5.00,0.00,22.5,21.9,00.0,31.5,24.2,13.6,0000.0,0000.83,0000.62,0000.58
2022-01-25 16:56:00,,0829.7,5.00,0.00,22.5,21.9,00.0,31.4,24.2,13.7,0000.0,0000.84,0000.63,0000.59
2022-01-25 16:57:00,,0829.7,4.99,0.00,22.5,21.8,00.0,31.4,24.2,13.7,0000.0,0000.88,0000.65,0000.60
2022-01-25 16:58:00,,0829.7,5.00,0.00,22.4,21.8,00.0,31.4,24.1,13.8,0000.0,0000.94,0000.67,0000.61
2022-01-25 16:59:00,,0829.7,5.00,0.00,22.4,21.8,00.0,31.4,24.1,13.8,0000.0,0000.98,0000.69,0000.62
